Location: Centerville
(32.8776°N, 96.6203°W)
Time: 09:53:02
(UTC+00:00)

Cosmos 2237 - Pass Details

Date: 29 October 2021
Orbit: 845 x 856 km, 70.8° (Epoch: 08 December)

Event Time Altitude Azimuth Distance (km) Brightness Sun altitude
Rises 01:03:44 0° 240° (WSW) 3,408 8.5 -18.4°
Reaches altitude 10° 01:06:56 10° 258° (WSW) 2,478 7.9 -19.1°
Maximum altitude 01:10:50 19° 302° (WNW) 1,937 6.7 -19.9°
Drops below altitude 10° 01:14:46 10° 346° (NNW) 2,489 6.8 -20.7°
Sets 01:18:01 0° 4° (N) 3,430 7.3 -21.4°
